User: anonymous   Login
Location: *
(43.9900°N, 3.4811°E)
Time: 01:44:50
(UTC+00:00)
Language:

Cosmos 1125 Rocket - Orbit

View from above orbital plane
View from above orbital plane
View from above satellite
View from above satellite

Ground track
Ground track

The orbit data is extracted from the following two-line orbital elements,

1 11511U 79078B   19291.29491990  .00000039  00000-0  22110-4 0  9997
2 11511  74.0374 187.1725 0016501 225.5023 134.4782 14.36859310101145
Epoch (UTC): 18 October 2019 07:04:41
Eccentricity: 0.0016501
inclination: 74.0374°
perigee height: 757 km
apogee height: 780 km
right ascension of ascending node: 187.1725°
argument of perigee: 225.5023°
revolutions per day: 14.36859310
mean anomaly at epoch: 134.4782°
orbit number at epoch: 10114

The dashed part of the orbit path shows where the satellite is in the earth's shadow,  

DLR